Find STARLINK-37536

NORAD ID: 799500947 Int'l Des: 2026-132A Constellation: starlink operational

当前视图

正在加载3D地球...

About STARLINK-37536

STARLINK-37536 (NORAD 799500947) is a starlink constellation satellite launched Jun 7, 2026

关于 STARLINK-37536

正在加载描述...

即将过境

Passes for default location (London). Set your location on the main map for personalized predictions.

高度历史

Loading altitude history...

两行轨道根数

1 99999C 2026132A 26163.62687500 .02051900 00000-0 225960-3 0 1630
2 99999 53.1634 346.8128 0009776 280.5255 323.3240 16.07797205 19
Epoch: Jun 12, 2026 • Age: 9 hours